Find Starlink 38267

NORAD ID: 100301 Int'l Des: 2026-184 Owner: SPXS Country: US Constellation: starlink operational

Current View

Loading 3D Globe...

About Starlink 38267

Starlink 38267 (NORAD 100301) is a starlink constellation satellite launched Aug 12, 2026 by SPXS of US. with a mass of 575.00 kg.

Upcoming Passes

Passes for default location (London). Set your location on the main map for personalized predictions.

Altitude History

Loading altitude history...

Two-Line Element Set

1 A0301U 26184A 26255.67084159 -.01115844 00000-0 -29910-1 0 9993
2 A0301 97.2835 120.9474 0001757 75.6615 284.4827 15.40673546 6166
Epoch: Sep 12, 2026 • Age: 14 hours

Current Status

Altitude 472.9 km
Apogee / Perigee N/A
Velocity 7.63 km/s
Sub-Earth Point -61.84°S, 148.85°W
Launch Date Aug 12, 2026
Age 32 days
Type internet

Technical Details

Classification Payload
Mass 575.00 kg
Dry Mass 530.00 kg
Total Mass 575.00 kg
Length 0.30 m
Diameter 4.10 m
Span 29.00 m
Shape Box + pan
Manufacturer SPXS
Bus Type Starlink V2MO
Phase Status In Orbit
Owner/State SPXS/US

Most Searched